EW3393 Weather Reports


Display with metric or nautical units.
time (UTC)temp
F
wind
direction
speed
MPH
gust
MPH
rain 1hr
in
rain 24hr
in
rain mn
in
humidity
%
barometer
mb
20200710184817 101 286 4.0 10.0 0.00 0.00 0.00 14 1013.4
20200710184331 101 287 2.0 10.0 0.00 0.00 0.00 14 1013.4
20200710183825 101 292 1.0 7.0 0.00 0.00 0.00 13 1013.4
20200710183323 101 294 1.0 11.0 0.00 0.00 0.00 13 1013.3
20200710182817 102 294 0.0 11.0 0.00 0.00 0.00 13 1013.4
20200710182331 101 300 0.0 5.0 0.00 0.00 0.00 13 1013.4
20200710181826 101 300 1.0 5.0 0.00 0.00 0.00 13 1013.4
20200710181321 100 300 0.0 0.0 0.00 0.00 0.00 13 1013.4
20200710180815 99 300 0.0 0.0 0.00 0.00 0.00 13 1013.4
20200710180328 99 300 0.0 0.0 0.00 0.00 0.00 13 1013.4
20200710175824 99 300 0.0 0.0 0.00 0.00 0.00 14 1013.4
20200710175318 99 300 0.0 0.0 0.00 0.00 0.00 14 1013.4
20200710174813 99 300 0.0 1.0 0.00 0.00 0.00 15 1013.4
20200710174328 98 300 0.0 3.0 0.00 0.00 0.00 15 1013.5
20200710173821 98 300 0.0 5.0 0.00 0.00 0.00 15 1013.5
20200710173315 98 300 0.0 5.0 0.00 0.00 0.00 15 1013.5
20200710172829 98 300 0.0 4.0 0.00 0.00 0.00 15 1013.4
20200710172323 98 302 0.0 4.0 0.00 0.00 0.00 15 1013.4
20200710171820 97 302 0.0 4.0 0.00 0.00 0.00 16 1013.6
20200710171314 96 302 0.0 4.0 0.00 0.00 0.00 16 1013.5
20200710170828 96 302 0.0 4.0 0.00 0.00 0.00 16 1013.7
20200710170323 95 302 0.0 1.0 0.00 0.00 0.00 15 1013.6
20200710165814 95 302 0.0 5.0 0.00 0.00 0.00 16 1013.6
20200710165329 95 302 0.0 8.0 0.00 0.00 0.00 15 1013.5
20200710164822 95 302 1.0 8.0 0.00 0.00 0.00 15 1013.4
20200710164321 95 303 0.0 8.0 0.00 0.00 0.00 16 1013.4
20200710163814 95 303 1.0 7.0 0.00 0.00 0.00 16 1013.4
20200710163329 95 303 0.0 8.0 0.00 0.00 0.00 16 1013.4
20200710162823 94 304 0.0 8.0 0.00 0.00 0.00 16 1013.4
20200710162317 94 304 0.0 4.0 0.00 0.00 0.00 16 1013.5
20200710161830 94 304 0.0 8.0 0.00 0.00 0.00 17 1013.6
20200710161324 93 304 1.0 10.0 0.00 0.00 0.00 17 1013.6
20200710160819 93 304 2.0 10.0 0.00 0.00 0.00 17 1013.6
20200710160317 93 304 0.0 4.0 0.00 0.00 0.00 17 1013.7
20200710155829 92 304 0.0 3.0 0.00 0.00 0.00 17 1013.7
20200710155323 92 304 0.0 8.0 0.00 0.00 0.00 17 1013.7
20200710154817 92 304 0.0 8.0 0.00 0.00 0.00 17 1013.5
20200710154331 92 304 1.0 8.0 0.00 0.00 0.00 17 1013.6
20200710153824 92 304 0.0 6.0 0.00 0.00 0.00 17 1013.6
20200710153317 92 304 0.0 6.0 0.00 0.00 0.00 16 1013.5
20200710152818 92 305 0.0 8.0 0.00 0.00 0.00 16 1013.5
20200710152315 92 305 0.0 8.0 0.00 0.00 0.00 17 1013.5
20200710151826 91 306 0.0 4.0 0.00 0.00 0.00 17 1013.4
20200710151318 91 307 1.0 4.0 0.00 0.00 0.00 17 1013.5
20200710150831 91 307 0.0 0.0 0.00 0.00 0.00 17 1013.4
20200710150324 91 307 0.0 4.0 0.00 0.00 0.00 17 1013.3
20200710145816 90 307 0.0 4.0 0.00 0.00 0.00 17 1013.4
20200710145330 90 307 0.0 0.0 0.00 0.00 0.00 17 1013.4
20200710144823 90 307 0.0 0.0 0.00 0.00 0.00 17 1013.4
20200710144320 89 307 0.0 0.0 0.00 0.00 0.00 17 1013.3
20200710143813 89 307 0.0 0.0 0.00 0.00 0.00 17 1013.2
20200710143326 89 307 0.0 0.0 0.00 0.00 0.00 18 1013.2
20200710142819 89 307 0.0 0.0 0.00 0.00 0.00 18 1013.1
20200710142331 88 307 0.0 0.0 0.00 0.00 0.00 18 1013.2
20200710141825 88 307 0.0 1.0 0.00 0.00 0.00 18 1013.1
20200710141319 87 307 0.0 1.0 0.00 0.00 0.00 18 1013.1
20200710140815 86 307 0.0 0.0 0.00 0.00 0.00 18 1013.0
20200710140328 86 307 0.0 0.0 0.00 0.00 0.00 18 1013.0
20200710135818 85 307 0.0 0.0 0.00 0.00 0.00 19 1012.9
20200710135331 84 307 0.0 0.0 0.00 0.00 0.00 19 1012.8
20200710134825 84 307 0.0 0.0 0.00 0.00 0.00 20 1012.8
20200710134318 83 307 0.0 1.0 0.00 0.00 0.00 19 1012.7
20200710133830 82 307 0.0 9.0 0.00 0.00 0.00 20 1012.7
20200710133323 81 307 0.0 9.0 0.00 0.00 0.00 21 1012.6
20200710132820 80 307 0.0 0.0 0.00 0.00 0.00 23 1012.6
20200710132313 80 307 0.0 0.0 0.00 0.00 0.00 21 1012.5
20200710131826 79 307 0.0 0.0 0.00 0.00 0.00 19 1012.4
20200710131318 79 307 0.0 0.0 0.00 0.00 0.00 19 1012.3
20200710130831 79 307 0.0 0.0 0.00 0.00 0.00 20 1012.2
20200710130324 79 307 0.0 0.0 0.00 0.00 0.00 22 1012.2
20200710125815 79 307 0.0 0.0 0.00 0.00 0.00 24 1012.2
20200710125328 80 307 0.0 0.0 0.00 0.00 0.00 26 1012.1
20200710124826 80 307 0.0 1.0 0.00 0.00 0.00 26 1012.0
20200710124320 81 307 0.0 13.0 0.00 0.00 0.00 26 1012.0
20200710123812 80 307 4.0 14.0 0.00 0.00 0.00 27 1011.9
20200710123325 80 309 0.0 9.0 0.00 0.00 0.00 27 1011.8
20200710122818 80 309 2.0 11.0 0.00 0.00 0.00 27 1011.8
20200710122330 79 310 6.0 11.0 0.00 0.00 0.00 28 1011.7
20200710121824 79 310 0.0 4.0 0.00 0.00 0.00 27 1011.7
20200710121315 80 310 0.0 0.0 0.00 0.00 0.00 25 1011.7
20200710120812 80 310 0.0 6.0 0.00 0.00 0.00 25 1011.6
20200710120325 81 310 0.0 6.0 0.00 0.00 0.00 25 1011.7
20200710115816 81 310 0.0 0.0 0.00 0.00 0.00 24 1011.6
20200710115328 81 310 0.0 0.0 0.00 0.00 0.00 24 1011.6
20200710114821 81 310 0.0 6.0 0.00 0.00 0.00 24 1011.5
20200710114314 81 310 0.0 8.0 0.00 0.00 0.00 24 1011.3
20200710113827 81 310 0.0 8.0 0.00 0.00 0.00 23 1011.2
20200710113320 81 310 0.0 8.0 0.00 0.00 0.00 22 1011.1
20200710112818 82 310 2.0 8.0 0.00 0.00 0.00 22 1011.1
20200710112331 82 310 0.0 3.0 0.00 0.00 0.00 21 1011.1
20200710111824 82 310 0.0 5.0 0.00 0.00 0.00 21 1011.0
20200710111317 82 310 0.0 5.0 0.00 0.00 0.00 20 1011.0
20200710110830 82 310 0.0 0.0 0.00 0.00 0.00 18 1011.0
20200710110323 82 310 0.0 0.0 0.00 0.00 0.00 17 1011.0
20200710105814 82 310 0.0 0.0 0.00 0.00 0.00 18 1010.8
20200710105328 83 310 0.0 0.0 0.00 0.00 0.00 18 1010.9
20200710104824 83 310 0.0 0.0 0.00 0.00 0.00 17 1010.8
20200710104317 84 310 0.0 0.0 0.00 0.00 0.00 17 1010.8
20200710103830 83 310 0.0 0.0 0.00 0.00 0.00 17 1010.7
20200710103324 84 310 0.0 1.0 0.00 0.00 0.00 17 1010.7
20200710102816 84 310 0.0 1.0 0.00 0.00 0.00 17 1010.5
20200710102329 84 310 0.0 1.0 0.00 0.00 0.00 17 1010.5
20200710101822 84 310 0.0 9.0 0.00 0.00 0.00 17 1010.3
20200710101319 84 310 0.0 9.0 0.00 0.00 0.00 17 1010.1
20200710100812 84 311 2.0 9.0 0.00 0.00 0.00 18 1010.2
20200710100325 84 310 0.0 5.0 0.00 0.00 0.00 18 1010.1
20200710095816 84 310 0.0 11.0 0.00 0.00 0.00 18 1010.0
20200710095329 84 310 2.0 11.0 0.00 0.00 0.00 18 1010.0
20200710094822 84 309 5.0 9.0 0.00 0.00 0.00 18 1010.0
20200710094315 85 309 0.0 13.0 0.00 0.00 0.00 18 1010.0
20200710093828 85 309 7.0 13.0 0.00 0.00 0.00 18 1010.0
20200710093325 85 310 8.0 14.0 0.00 0.00 0.00 18 1010.0
20200710092818 84 311 10.0 14.0 0.00 0.00 0.00 20 1010.1
20200710092331 84 310 3.0 12.0 0.00 0.00 0.00 20 1010.0
20200710091824 83 306 6.0 11.0 0.00 0.00 0.00 22 1010.0
20200710091317 83 304 4.0 12.0 0.00 0.00 0.00 22 1010.0
20200710090828 83 302 6.0 13.0 0.00 0.00 0.00 23 1010.0
20200710090321 83 301 7.0 13.0 0.00 0.00 0.00 24 1010.1
20200710085812 83 300 2.0 12.0 0.00 0.00 0.00 25 1010.1
20200710085329 83 300 7.0 12.0 0.00 0.00 0.00 25 1010.1
20200710084822 83 300 7.0 12.0 0.00 0.00 0.00 25 1010.1
20200710084315 83 297 6.0 12.0 0.00 0.00 0.00 26 1010.1
20200710083828 84 297 9.0 12.0 0.00 0.00 0.00 26 1010.2
20200710083321 84 298 1.0 16.0 0.00 0.00 0.00 26 1010.3
20200710082814 84 298 12.0 16.0 0.00 0.00 0.00 27 1010.2
20200710082327 83 302 12.0 15.0 0.00 0.00 0.00 28 1010.1
20200710081820 83 301 8.0 13.0 0.00 0.00 0.00 28 1010.1
20200710081318 83 300 5.0 11.0 0.00 0.00 0.00 28 1010.1
20200710080831 83 300 0.0 11.0 0.00 0.00 0.00 28 1010.1
20200710080324 83 300 9.0 13.0 0.00 0.00 0.00 28 1010.2
20200710075815 83 300 10.0 13.0 0.00 0.00 0.00 27 1010.2
20200710075328 84 297 7.0 13.0 0.00 0.00 0.00 26 1010.2
20200710074822 84 298 9.0 13.0 0.00 0.00 0.00 26 1010.2
20200710074315 84 297 9.0 13.0 0.00 0.00 0.00 25 1010.3
20200710073812 84 297 10.0 14.0 0.00 0.00 0.00 25 1010.3
20200710073324 84 297 11.0 14.0 0.00 0.00 0.00 24 1010.4
20200710072816 85 297 5.0 13.0 0.00 0.00 0.00 24 1010.3
20200710072329 85 296 7.0 13.0 0.00 0.00 0.00 24 1010.3
20200710071822 85 296 9.0 13.0 0.00 0.00 0.00 23 1010.3
20200710071315 85 296 4.0 12.0 0.00 0.00 0.00 25 1010.1
20200710070828 85 296 5.0 12.0 0.00 0.00 0.00 25 1010.1
20200710070321 85 297 5.0 13.0 0.00 0.00 0.00 26 1010.1
20200710065816 85 298 7.0 13.0 0.00 0.00 0.00 26 1010.0
20200710065329 85 299 1.0 11.0 0.00 0.00 0.00 25 1010.0
20200710064822 85 299 6.0 13.0 0.00 0.00 0.00 25 1010.0
20200710064315 86 298 8.0 13.0 0.00 0.00 0.00 25 1010.0
20200710063828 86 298 4.0 13.0 0.00 0.00 0.00 26 1010.0
20200710063321 86 297 8.0 13.0 0.00 0.00 0.00 26 1010.0
20200710062813 85 298 11.0 13.0 0.00 0.00 0.00 26 1010.0
20200710062326 85 300 6.0 13.0 0.00 0.00 0.00 26 1010.0
20200710061823 85 302 10.0 13.0 0.00 0.00 0.00 27 1009.9
20200710061316 85 302 10.0 13.0 0.00 0.00 0.00 26 1010.0
20200710060829 86 301 10.0 13.0 0.00 0.00 0.00 27 1010.0
20200710060322 86 300 1.0 13.0 0.00 0.00 0.00 27 1010.0
20200710055814 86 298 10.0 14.0 0.00 0.00 0.00 27 1010.0
20200710055327 86 298 10.0 14.0 0.00 0.00 0.00 26 1009.9
20200710054822 87 299 9.0 14.0 0.00 0.00 0.00 26 1009.9
20200710054315 87 298 10.0 14.0 0.00 0.00 0.00 26 1009.8
20200710053831 87 296 10.0 15.0 0.00 0.00 0.00 26 1009.8
20200710053324 87 296 11.0 16.0 0.00 0.00 0.00 25 1009.8
20200710052817 87 296 13.0 16.0 0.00 0.00 0.00 25 1009.8
20200710052330 87 297 12.0 16.0 0.00 0.00 0.00 26 1009.8
20200710051823 87 301 11.0 18.0 0.00 0.00 0.00 26 1009.8
20200710051316 88 302 13.0 18.0 0.00 0.00 0.00 26 1009.7
20200710050829 88 302 13.0 22.0 0.00 0.00 0.00 26 1009.7
20200710050322 88 302 15.0 22.0 0.00 0.00 0.00 25 1009.5
20200710045817 88 304 15.0 19.0 0.00 0.00 0.00 25 1009.5
20200710045330 88 307 14.0 18.0 0.00 0.00 0.00 25 1009.4
20200710044823 88 306 13.0 19.0 0.00 0.00 0.00 25 1009.3
20200710044316 89 309 14.0 19.0 0.00 0.00 0.00 25 1009.2
20200710043829 89 308 14.0 18.0 0.00 0.00 0.00 25 1009.2
20200710043322 89 304 12.0 21.0 0.00 0.00 0.00 25 1009.1
20200710042815 89 305 14.0 21.0 0.00 0.00 0.00 25 1009.0
20200710042311 89 306 16.0 19.0 0.00 0.00 0.00 25 1008.9
20200710041825 89 309 16.0 21.0 0.00 0.00 0.00 25 1008.8
20200710041319 90 306 12.0 20.0 0.00 0.00 0.00 25 1008.8
20200710040813 90 304 13.0 19.0 0.00 0.00 0.00 24 1008.7
20200710040325 90 309 12.0 20.0 0.00 0.00 0.00 24 1008.6
20200710035817 90 311 13.0 20.0 0.00 0.00 0.00 24 1008.6
20200710035312 90 310 14.0 20.0 0.00 0.00 0.00 24 1008.6
20200710034826 91 318 14.0 19.0 0.00 0.00 0.00 24 1008.5
20200710034323 91 305 12.0 20.0 0.00 0.00 0.00 23 1008.4
20200710033817 92 302 14.0 21.0 0.00 0.00 0.00 23 1008.3
20200710033329 92 293 15.0 23.0 0.00 0.00 0.00 23 1008.2
20200710032823 92 296 17.0 23.0 0.00 0.00 0.00 23 1008.1
20200710032317 92 300 11.0 19.0 0.00 0.00 0.00 23 1008.0
20200710031828 93 304 14.0 19.0 0.00 0.00 0.00 22 1008.0
20200710031321 93 294 13.0 19.0 0.00 0.00 0.00 22 1008.0
20200710030815 93 294 12.0 16.0 0.00 0.00 0.00 21 1008.0
20200710030313 94 293 12.0 19.0 0.00 0.00 0.00 20 1008.0
20200710025823 94 292 13.0 19.0 0.00 0.00 0.00 20 1007.9
20200710025316 95 286 13.0 19.0 0.00 0.00 0.00 19 1007.8
20200710024829 96 279 14.0 18.0 0.00 0.00 0.00 18 1007.8
20200710024324 96 274 13.0 18.0 0.00 0.00 0.00 18 1007.7
20200710023817 97 279 9.0 15.0 0.00 0.00 0.00 17 1007.7
20200710023330 98 279 9.0 14.0 0.00 0.00 0.00 16 1007.7
20200710022822 98 279 8.0 15.0 0.00 0.00 0.00 15 1007.6
20200710022320 99 278 10.0 16.0 0.00 0.00 0.00 14 1007.6
20200710021812 99 277 12.0 16.0 0.00 0.00 0.00 14 1007.6
20200710021324 100 277 9.0 14.0 0.00 0.00 0.00 13 1007.6
20200710020817 100 277 11.0 18.0 0.00 0.00 0.00 12 1007.5
20200710020330 100 277 14.0 18.0 0.00 0.00 0.00 12 1007.5
20200710015821 101 275 10.0 16.0 0.00 0.00 0.00 11 1007.5
20200710015315 101 273 9.0 16.0 0.00 0.00 0.00 11 1007.4
20200710014813 102 269 9.0 15.0 0.00 0.00 0.00 11 1007.5
20200710014326 102 267 9.0 16.0 0.00 0.00 0.00 11 1007.4
20200710013819 102 263 12.0 16.0 0.00 0.00 0.00 10 1007.4
20200710013312 103 253 13.0 15.0 0.00 0.00 0.00 10 1007.4
20200710012827 103 223 5.0 14.0 0.00 0.00 0.00 10 1007.4
20200710012320 103 211 8.0 12.0 0.00 0.00 0.00 9 1007.3
20200710011813 103 184 7.0 10.0 0.00 0.00 0.00 9 1007.3
20200710011327 103 175 0.0 10.0 0.00 0.00 0.00 8 1007.3
20200710010822 103 145 0.0 7.0 0.00 0.00 0.00 8 1007.3
20200710010316 103 145 2.0 10.0 0.00 0.00 0.00 8 1007.2
20200710005827 103 145 4.0 10.0 0.00 0.00 0.00 7 1007.1
20200710005320 103 146 0.0 0.0 0.00 0.00 0.00 7 1007.1
20200710004813 104 146 0.0 5.0 0.00 0.00 0.00 7 1007.1
20200710004326 104 146 0.0 10.0 0.00 0.00 0.00 7 1007.1
20200710003819 104 146 3.0 10.0 0.00 0.00 0.00 7 1007.1
20200710003313 104 146 1.0 7.0 0.00 0.00 0.00 7 1007.2
20200710002831 104 146 1.0 4.0 0.00 0.00 0.00 7 1007.2
20200710002324 104 146 0.0 4.0 0.00 0.00 0.00 6 1007.2
20200710001817 104 146 1.0 4.0 0.00 0.00 0.00 6 1007.3
20200710001330 104 146 0.0 0.0 0.00 0.00 0.00 6 1007.3
20200710000823 104 146 0.0 0.0 0.00 0.00 0.00 6 1007.3
20200710000317 103 146 0.0 0.0 0.00 0.00 0.00 6 1007.4
20200709235828 103 146 0.0 5.0 0.00 0.00 0.00 6 1007.4
20200709235320 103 146 0.0 7.0 0.00 0.00 0.00 6 1007.5
20200709234816 103 146 0.0 5.0 0.00 0.00 0.00 6 1007.5
20200709234330 103 146 3.0 5.0 0.00 0.00 0.00 6 1007.5
20200709233823 103 146 1.0 11.0 0.00 0.00 0.00 6 1007.5
20200709233318 103 145 5.0 10.0 0.00 0.00 0.00 7 1007.5
20200709232812 103 145 1.0 10.0 0.00 0.00 0.00 6 1007.6
20200709232326 103 146 5.0 10.0 0.00 0.00 0.00 7 1007.6
20200709231820 103 149 1.0 7.0 0.00 0.00 0.00 6 1007.6
20200709231317 103 149 2.0 7.0 0.00 0.00 0.00 6 1007.7
20200709230829 103 149 0.0 7.0 0.00 0.00 0.00 6 1007.7
20200709230322 103 149 2.0 7.0 0.00 0.00 0.00 6 1007.7
20200709225814 103 149 0.0 8.0 0.00 0.00 0.00 6 1007.7
20200709225327 103 149 3.0 8.0 0.00 0.00 0.00 6 1007.8
20200709224821 103 150 1.0 9.0 0.00 0.00 0.00 5 1007.8
20200709224313 103 150 3.0 9.0 0.00 0.00 0.00 6 1007.8
20200709223826 103 153 0.0 8.0 0.00 0.00 0.00 6 1007.9
20200709223322 103 157 1.0 6.0 0.00 0.00 0.00 7 1007.9
20200709222816 103 158 0.0 8.0 0.00 0.00 0.00 7 1007.9
20200709222330 104 159 1.0 8.0 0.00 0.00 0.00 8 1008.0
20200709221824 103 159 3.0 7.0 0.00 0.00 0.00 6 1008.0
20200709221317 103 159 2.0 6.0 0.00 0.00 0.00 7 1008.1
20200709220830 104 162 0.0 6.0 0.00 0.00 0.00 8 1008.2
20200709220325 103 162 1.0 6.0 0.00 0.00 0.00 10 1008.2
20200709215816 103 162 2.0 6.0 0.00 0.00 0.00 8 1008.2
20200709215312 103 162 3.0 8.0 0.00 0.00 0.00 9 1008.3
20200709214826 102 162 3.0 8.0 0.00 0.00 0.00 9 1008.3
20200709214321 102 162 1.0 9.0 0.00 0.00 0.00 9 1008.3
20200709213812 103 163 6.0 10.0 0.00 0.00 0.00 9 1008.3
20200709213326 102 166 1.0 10.0 0.00 0.00 0.00 10 1008.3
20200709212820 102 165 1.0 14.0 0.00 0.00 0.00 10 1008.4
20200709212314 102 174 1.0 14.0 0.00 0.00 0.00 10 1008.4
20200709211812 102 153 1.0 12.0 0.00 0.00 0.00 9 1008.4
20200709211326 103 153 6.0 15.0 0.00 0.00 0.00 9 1008.4
20200709210820 103 159 8.0 15.0 0.00 0.00 0.00 9 1008.3
20200709210314 103 184 2.0 12.0 0.00 0.00 0.00 8 1008.4
20200709205825 103 184 4.0 16.0 0.00 0.00 0.00 8 1008.4
20200709205318 102 184 10.0 15.0 0.00 0.00 0.00 8 1008.4
20200709204811 102 169 2.0 14.0 0.00 0.00 0.00 8 1008.5
20200709204324 101 168 4.0 11.0 0.00 0.00 0.00 7 1008.6
20200709203821 101 168 0.0 10.0 0.00 0.00 0.00 8 1008.6
20200709203314 101 168 0.0 10.0 0.00 0.00 0.00 7 1008.6
20200709202828 101 172 1.0 8.0 0.00 0.00 0.00 7 1008.6
20200709202321 102 175 3.0 9.0 0.00 0.00 0.00 7 1008.7
20200709201815 102 180 1.0 11.0 0.00 0.00 0.00 7 1008.7
20200709201328 102 180 3.0 11.0 0.00 0.00 0.00 7 1008.7
20200709200822 101 179 6.0 10.0 0.00 0.00 0.00 8 1008.8
20200709200314 101 188 0.0 8.0 0.00 0.00 0.00 7 1008.8
20200709195830 101 188 3.0 10.0 0.00 0.00 0.00 7 1008.9
20200709195323 102 189 5.0 10.0 0.00 0.00 0.00 7 1009.0
20200709194816 102 198 0.0 11.0 0.00 0.00 0.00 7 1009.0
20200709194329 102 202 4.0 11.0 0.00 0.00 0.00 8 1009.0
20200709193821 102 202 7.0 13.0 0.00 0.00 0.00 7 1009.0
20200709193315 101 205 2.0 8.0 0.00 0.00 0.00 8 1009.0
20200709192828 101 205 1.0 11.0 0.00 0.00 0.00 7 1009.0
20200709192322 102 207 6.0 11.0 0.00 0.00 0.00 8 1009.1
20200709191820 102 211 7.0 11.0 0.00 0.00 0.00 8 1009.1
20200709191315 102 215 1.0 11.0 0.00 0.00 0.00 8 1009.2
20200709190828 101 216 4.0 10.0 0.00 0.00 0.00 8 1009.2
20200709190321 101 217 4.0 12.0 0.00 0.00 0.00 9 1009.0
20200709185812 100 219 1.0 7.0 0.00 0.00 0.00 9 1009.2
20200709185325 100 219 2.0 8.0 0.00 0.00 0.00 9 1009.2